Philadelphia, PA

10:55 PM EST on December 10, 2019 (GMT -0500)
Philadelphia International

Weather History for KPHL - June, 2019

Change the Weather History Date:

Saturday, June 1, 2019

  Actual Average Record
Temperature  
Mean Temperature 75 °F 69 °F  
Max Temperature 84 °F 79 °F 97 °F (1895)
Min Temperature 65 °F 59 °F 44 °F (1967)
Degree Days  
Heating Degree Days 0 1  
Month to date heating degree days 0 1  
Since 1 June heating degree days 0 1  
Since 1 July heating degree days 4359 4603  
Cooling Degree Days 10 5  
Month to date cooling degree days 10 5  
Year to date cooling degree days 160 96  
Since 1 June cooling degree days 10 5  
Growing Degree Days 23 (Base 50)    
Moisture  
Dew Point 60 °F    
Average Humidity 65    
Maximum Humidity 87    
Minimum Humidity 43    
Precipitation  
Precipitation 0.01 in 0.12 in 1.96 in (2015)
Month to date precipitation 0.01 0.12  
Year to date precipitation 19.29 16.86  
Snow  
Snow 0.00 in 0.00 in 0.00 in ()
Month to date snowfall 0.0 0.0  
Since 1 June snowfall 0.0 0.0  
Since 1 July snowfall 17.1 22.4  
Snow Depth 0.00 in    
Sea Level Pressure  
Sea Level Pressure 29.81 in    
Wind  
Wind Speed 6 mph (South)    
Max Wind Speed 18 mph    
Max Gust Speed 24 mph    
Visibility 10 miles    
Events Rain    
T = Trace of Precipitation, MM = Missing Value Source: NWS Daily Summary

Daily Weather History Graph

Daily Weather History Graph

Search for Another Location

Airport or City:

Astronomy

Jun. 01, 2019 Rise Set
Actual Time 5:34 AM EDT 8:23 PM EDT
Civil Twilight 5:02 AM EDT 8:55 PM EDT
Nautical Twilight 4:22 AM EDT 9:35 PM EDT
Astronomical Twilight 3:36 AM EDT 10:21 PM EDT
Moon 4:37 AM EDT (6/1) 6:34 PM EDT (6/1)
Length of Visible Light 15h 52m
Length of Day
14h 48m
Waning Crescent, 4% of the Moon is Illuminated
Jun 1
Waning Crescent
Jun 3
New
Jun 10
First Quarter
Jun 17
Full
Jun 25
Last Quarter

Hourly Weather History & Observations

Time (EDT) Temp. Heat Index Dew Point Humidity Pressure Visibility Wind Dir Wind Speed Gust Speed Precip Events Conditions
12:54 AM 71.1 °F - 61.0 °F 70% 29.81 in 10.0 mi NW 3.5 mph - N/A   Scattered Clouds
1:54 AM 68.0 °F - 60.1 °F 76% 29.79 in 10.0 mi South 3.5 mph - N/A   Mostly Cloudy
2:54 AM 66.9 °F - 63.0 °F 87% 29.79 in 10.0 mi South 3.5 mph - N/A   Mostly Cloudy
3:54 AM 66.0 °F - 61.0 °F 84% 29.80 in 10.0 mi NNW 4.6 mph - N/A   Mostly Cloudy
4:54 AM 66.0 °F - 59.0 °F 78% 29.81 in 10.0 mi Calm Calm - N/A   Mostly Cloudy
5:54 AM 66.9 °F - 57.9 °F 73% 29.83 in 10.0 mi NW 3.5 mph - N/A   Mostly Cloudy
6:54 AM 66.9 °F - 59.0 °F 76% 29.85 in 10.0 mi Variable 3.5 mph - N/A   Overcast
7:54 AM 68.0 °F - 62.1 °F 81% 29.86 in 10.0 mi Calm Calm - N/A   Overcast
8:54 AM 72.0 °F - 60.1 °F 66% 29.86 in 10.0 mi East 6.9 mph - N/A   Overcast
9:54 AM 73.0 °F - 60.1 °F 64% 29.86 in 10.0 mi NE 3.5 mph - N/A   Overcast
10:54 AM 78.1 °F - 62.1 °F 58% 29.85 in 10.0 mi ESE 4.6 mph - N/A   Overcast
11:54 AM 79.0 °F - 60.1 °F 52% 29.85 in 10.0 mi Variable 4.6 mph - N/A   Overcast
12:54 PM 81.0 °F 81.3 °F 59.0 °F 47% 29.82 in 10.0 mi SSE 5.8 mph - N/A   Mostly Cloudy
1:54 PM 81.0 °F 81.1 °F 57.9 °F 45% 29.81 in 10.0 mi South 4.6 mph - N/A   Mostly Cloudy
2:54 PM 82.9 °F 82.8 °F 59.0 °F 44% 29.79 in 10.0 mi SE 8.1 mph - N/A   Mostly Cloudy
3:54 PM 82.0 °F 81.7 °F 57.0 °F 42% 29.78 in 10.0 mi SSE 4.6 mph - N/A   Mostly Cloudy
4:54 PM 82.0 °F 81.7 °F 57.0 °F 42% 29.77 in 10.0 mi SSW 5.8 mph - N/A   Mostly Cloudy
5:54 PM 81.0 °F 81.6 °F 60.1 °F 49% 29.76 in 10.0 mi South 6.9 mph - N/A   Mostly Cloudy
6:54 PM 81.0 °F 81.6 °F 60.1 °F 49% 29.77 in 10.0 mi South 8.1 mph - N/A   Mostly Cloudy
7:54 PM 79.0 °F - 62.1 °F 56% 29.78 in 10.0 mi South 8.1 mph - N/A   Mostly Cloudy
8:54 PM 75.9 °F - 63.0 °F 64% 29.78 in 10.0 mi South 11.5 mph - N/A   Mostly Cloudy
9:54 PM 73.9 °F - 61.0 °F 64% 29.80 in 10.0 mi SSW 5.8 mph - N/A   Mostly Cloudy
10:54 PM 73.9 °F - 57.9 °F 57% 29.81 in 10.0 mi SSW 9.2 mph - N/A   Overcast
11:54 PM 73.0 °F - 60.1 °F 64% 29.83 in 10.0 mi WNW 11.5 mph 24.2 mph 0.00 in Rain Light Rain